Terug naar catalogus

SL-19 DEB

ActiefUNKNOWN
NORAD 23564·DEBRIS·🇷🇺 Russia

Gelanceerd Dec 26, 1994 vanaf Baikonur Cosmodrome

Loading…

Volgende Passages (komende 24 uur)

TLE

VersSource: Space-Track

Epoch: Sep 14, 2026, 06:35 UTC

1 23564U 94085V   26257.27467355 -.00000041  00000-0  43974-4 0  9994
2 23564  64.9999   1.1490 0183082  59.3090 328.3141 11.34902626298286

Volg SL-19 DEB in realtime met AllMySat

Download on the App Store